Lid_Strength_Index
1 2 2 1 1 1 1 2 0 1 3 3 3 2 1 1 1 1 1 1 1 1 1 1 1 2 2 2 1 2 2 3 4 3 3 2 2 2 1 0 -0 0 0
1 1 1 1 1 1 1 1 0 2 2 3 2 1 1 1 1 1 1 1 1 2 1 2 2 1 2 2 2 2 2 2 2 4 3 2 2 1 1 0 -0 -0 0
1 2 2 2 1 2 1 1 1 2 3 1 0 1 1 1 1 1 1 1 1 1 1 2 1 1 1 2 2 2 2 1 2 2 3 2 2 1 1 1 0 0 -0
2 2 2 2 1 2 1 1 1 1 1 1 1 1 1 1 2 1 1 1 1 1 1 1 1 1 2 2 1 2 2 2 2 2 3 2 2 1 2 2 2 1 2
2 3 3 2 2 1 2 2 1 1 1 1 2 3 3 4 4 3 1 1 2 2 1 2 3 3 3 3 1 2 2 2 2 3 3 3 3 3 3 2 2 2 2
2 2 1 1 2 1 1 1 1 1 2 2 4 5 5 5 5 6 3 2 2 2 1 2 4 5 4 4 4 3 3 3 3 3 3 4 3 3 2 2 2 3 4
2 2 2 2 2 2 2 2 2 2 2 5 7 8 9 8 7 7 4 2 1 2 1 3 5 5 4 3 3 3 5 5 3 3 4 3 3 3 3 3 3 3 3
2 2 2 2 3 2 2 1 1 2 4 5 7 8 9 8 8 7 4 3 3 4 6 7 8 7 6 4 6 7 7 6 6 4 4 4 3 3 3 2 2 2 2
2 2 3 2 2 2 3 4 5 4 6 7 8 9 9 9 8 5 4 5 7 8 8 8 9 9 7 5 7 8 8 6 4 3 4 4 5 4 3 3 4 4 5
3 2 2 2 2 2 3 4 5 6 9 10 10 10 10 10 8 6 5 6 8 9 9 9 8 9 8 8 7 8 7 8 6 6 6 5 5 6 5 6 6 8 6
3 2 2 2 1 2 1 3 4 6 8 9 9 10 11 11 10 8 6 5 6 8 10 9 9 9 9 9 8 8 8 7 7 7 8 8 7 7 8 8 8 9 8
4 4 3 2 2 3 3 4 5 6 9 9 10 11 11 10 9 10 9 7 8 9 10 9 8 10 10 9 9 9 8 8 8 8 8 8 8 8 8 8 9 9 7
5 7 7 7 8 5 4 4 5 6 6 7 8 9 10 12 11 10 9 8 8 9 8 8 9 10 10 9 9 9 8 10 9 11 11 9 9 9 9 9 9 9 8
8 9 10 11 11 10 11 11 10 9 5 5 7 10 12 13 14 12 12 12 11 11 9 7 7 6 7 7 8 8 7 8 9 10 10 9 9 8 8 8 9 9 10
6 8 10 12 13 14 14 13 13 14 13 9 8 10 12 15 15 14 14 14 14 12 8 8 8 8 9 9 9 10 10 10 9 9 10 10 10 10 10 10 10 11 12
5 6 8 9 11 12 13 14 13 13 13 14 14 12 14 14 13 14 15 14 12 10 9 9 10 9 9 9 10 10 10 9 10 10 11 11 12 12 12 12 12 12 13
7 6 6 7 9 10 11 13 14 13 13 14 14 14 15 14 15 15 14 13 12 10 10 10 10 10 10 10 10 11 11 11 11 11 12 12 12 13 13 13 13 13 13
7 6 5 6 8 9 10 11 13 13 12 12 13 14 14 14 14 14 14 12 11 11 11 11 11 12 12 12 12 12 12 12 12 12 13 13 13 14 14 14 14 14 14
9 9 8 7 7 9 11 12 12 12 14 13 13 13 13 14 14 14 13 12 12 12 12 12 12 12 12 12 12 12 13 13 14 14 14 14 14 14 14 14 14 13 14
9 5 7 9 8 9 9 11 11 12 14 14 13 13 11 11 11 10 10 11 11 12 12 12 11 12 12 12 12 12 13 14 15 15 15 15 15 15 15 15 15 15 15
7 8 6 10 10 9 9 10 10 10 11 12 11 11 11 11 11 11 11 11 11 11 11 11 11 11 12 11 12 12 12 13 14 14 15 15 14 15 15 14 14 14 13
7 8 9 9 10 10 9 9 9 8 9 10 10 10 11 10 10 9 10 9 9 10 10 10 11 11 11 11 12 12 13 13 13 13 13 13 14 14 14 14 14 13 13
6 7 8 8 8 7 8 8 8 8 8 8 9 10 11 11 10 8 8 8 8 9 9 8 8 9 9 9 9 10 11 11 11 11 12 12 13 13 13 13 13 12 11
6 7 7 8 9 9 8 8 7 7 7 7 8 9 9 9 8 7 7 6 6 7 7 7 7 7 7 7 8 8 8 9 10 10 11 11 12 12 12 12 12 11 10
6 6 6 7 7 8 8 7 7 7 7 7 6 7 8 7 7 6 6 5 5 5 6 6 6 6 7 7 8 8 9 10 9 10 10 10 10 10 10 11 11 10 9
6 7 7 6 6 6 6 6 5 5 6 6 6 6 7 6 6 6 6 6 6 6 6 6 6 7 7 7 7 8 10 10 9 10 9 10 10 11 11 11 11 10 10